Flag for U.S.A. Weather past 2 weeks in Duluth, Minnesota, U.S.A.

Now
66 °F

Sunny.


Feels Like: 66 °F
Forecast: 51 / 75 °F
Wind: 6 mph from East

Location: Sky Harbor Airport

Current Time: Jul 24, 2014 at 2:20:14 PM

Latest Report: Jul 24, 2014 at 1:53 PM


Visibility: 10 mi

Pressure: 30.05 "Hg

Humidity: 78%

Dew point: 59 °F

Location of DuluthLocation

Historic Weather in Duluth — Graph

°F

Duluth temperature yesterday

Maximum temperature yesterday: 70 °F (at 11:53 AM)
Minimum temperature yesterday: 55 °F (at 10:34 PM)
Average temperature yesterday: 63 °F

Past Weeks' High & Low Weather Summary

 TemperatureHumidityPressure
High91 °F (Jul 21, 3:13 PM)100% (Jul 11, 6:53 AM)30.26 "Hg (Jul 11, 6:53 AM)
Low48 °F (Jul 16, 4:34 AM)36% (Jul 16, 4:34 PM)29.68 "Hg (Jul 22, 4:13 AM)
Average64 °F78%29.96 "Hg
* Reported Jul 9 12:33 PM — Jul 24 12:53 PM, Duluth, Weather by CustomWeather, © 2014

Note: Actual official high and low records may vary slightly from our data, if they occured in-between our weather recording intervals... More about our weather records

Advertising

Duluth weather history for previous 24 hours

 ConditionsComfort  
Time TempWeatherWind HumidityBarometerVisibility
12:53 PM
Jul 24
64 °FSunny.7 mph78%30.09 "Hg10 mi
12:34 PM63 °FSunny.6 mph83%30.10 "Hg10 mi
12:13 PM63 °FSunny.6 mph83%30.10 "Hg10 mi
11:54 AM63 °FSunny.5 mph83%30.10 "Hg10 mi
11:33 AM63 °FSunny.5 mph83%30.11 "Hg10 mi
11:13 AM63 °FSunny.5 mph83%30.11 "Hg10 mi
10:54 AM63 °FSunny.5 mph83%30.13 "Hg10 mi
10:33 AM61 °FSunny.5 mph83%30.13 "Hg10 mi
10:14 AM61 °FSunny.No wind83%30.15 "Hg10 mi
9:53 AM61 °FSunny.No wind83%30.16 "Hg10 mi
9:33 AM59 °FSunny.3 mph88%30.16 "Hg10 mi
9:14 AM59 °FSunny.3 mph88%30.16 "Hg10 mi
8:53 AM59 °FFog.3 mph88%30.16 "Hg5 mi
8:33 AM57 °FFog.3 mph94%30.16 "Hg2 mi
8:14 AM57 °FFog.3 mph94%30.16 "Hg1 mi
7:53 AM55 °FFog.No wind94%30.17 "Hg0 mi
7:34 AM55 °FFog.3 mph94%30.17 "Hg0 mi
7:13 AM57 °FFog.No wind94%30.18 "Hg1 mi
6:53 AM57 °FScattered clouds.No wind94%30.18 "Hg10 mi
6:34 AM57 °FPassing clouds.3 mph94%30.18 "Hg10 mi
6:13 AM57 °FPassing clouds.3 mph94%30.19 "Hg10 mi
5:53 AM55 °FPassing clouds.No wind94%30.19 "Hg10 mi
5:34 AM57 °FPassing clouds.3 mph88%30.19 "Hg10 mi
5:14 AM57 °FPassing clouds.7 mph94%30.19 "Hg10 mi
4:53 AM57 °FOvercast.No wind88%30.19 "Hg10 mi
4:33 AM55 °FOvercast.No wind94%30.19 "Hg10 mi
4:13 AM55 °FOvercast.No wind94%30.19 "Hg10 mi
3:53 AM55 °FPassing clouds.No wind94%30.19 "Hg10 mi
3:34 AM55 °FPassing clouds.3 mph94%30.19 "Hg10 mi
3:13 AM55 °FPassing clouds.No wind94%30.19 "Hg10 mi
2:53 AM55 °FClear.No wind94%30.19 "Hg10 mi
2:34 AM55 °FClear.3 mph94%30.19 "Hg10 mi
2:13 AM55 °FClear.3 mph94%30.19 "Hg10 mi
1:53 AM55 °FClear.6 mph94%30.18 "Hg10 mi
1:34 AM55 °FPassing clouds.6 mph94%30.19 "Hg10 mi
12:34 AM55 °FPassing clouds.9 mph94%30.19 "Hg10 mi
12:13 AM55 °FClear.6 mph94%30.19 "Hg10 mi
11:54 PM
Jul 23
55 °FClear.8 mph94%30.19 "Hg10 mi
11:33 PM57 °FClear.8 mph88%30.19 "Hg10 mi
11:13 PM57 °FPassing clouds.5 mph88%30.19 "Hg10 mi
10:53 PM55 °FPassing clouds.6 mph94%30.19 "Hg10 mi
10:34 PM55 °FClear.7 mph94%30.19 "Hg10 mi
9:53 PM59 °FClear.6 mph88%30.19 "Hg10 mi
9:34 PM59 °FSunny.7 mph88%30.19 "Hg10 mi
9:13 PM61 °FSunny.5 mph83%30.19 "Hg10 mi
8:53 PM63 °FSunny.No wind83%30.18 "Hg10 mi
8:34 PM63 °FSunny.3 mph83%30.18 "Hg10 mi
7:53 PM64 °FSunny.6 mph78%30.18 "Hg10 mi
7:34 PM64 °FSunny.No wind78%30.19 "Hg10 mi
7:13 PM64 °FSunny.No wind78%30.19 "Hg10 mi
6:53 PM64 °FSunny.3 mph78%30.19 "Hg10 mi
6:34 PM64 °FSunny.No wind78%30.19 "Hg10 mi
6:13 PM64 °FSunny.No wind78%30.20 "Hg10 mi
5:53 PM64 °FScattered clouds.5 mph78%30.20 "Hg10 mi
5:33 PM64 °FSunny.5 mph78%30.20 "Hg10 mi
5:13 PM64 °FSunny.No wind78%30.21 "Hg10 mi
4:54 PM64 °FSunny.3 mph78%30.21 "Hg10 mi
4:33 PM64 °FSunny.5 mph78%30.21 "Hg10 mi
4:13 PM64 °FSunny.3 mph83%30.22 "Hg10 mi
3:54 PM64 °FSunny.7 mph78%30.23 "Hg10 mi
3:33 PM64 °FSunny.5 mph78%30.23 "Hg10 mi
3:13 PM64 °FSunny.No wind78%30.23 "Hg10 mi
2:53 PM64 °FSunny.5 mph78%30.23 "Hg10 mi
2:14 PM64 °FSunny.3 mph78%30.24 "Hg10 mi
Weather by CustomWeather, © 2014

See weather overviewHow to use our weather pages